Location: A�t �Alizem
(31.2076°N, 8.7872°W)
Time: 15:42:40
(UTC+00:00)

CENTAUR R/B - Pass Details

Date: 27 November 2020
Orbit: 750 x 1438 km, 63.4° (Epoch: 11 January)

Event Time Altitude Azimuth Distance (km) Brightness Sun altitude
Rises 19:16:48 0° 190° (S) 3,244 5.5 -21.9°
Reaches altitude 10° 19:19:10 10° 183° (S) 2,368 4.7 -22.4°
Enters shadow 19:23:59 44° 121° (ESE) 1,186 2.6 -23.4°
